• In Netherlands
  • List of Countries
  • For 7 days
  • Water Temperature
  • Satellite Maps
  • Weather Map
  • Weather Widgets
  • user-avatar
    Login

    Hourly Weather Wlora

    Today, 28 July, Friday

    Time Temperature Precipitation Wind Pressure Humidity
    00:00 +21°C° 0 mm 3 mps 757 mmHg 61%
    01:00 +21°C° 0 mm 3 mps 757 mmHg 60%
    02:00 +21°C° 0 mm 3 mps 758 mmHg 62%
    03:00 +21°C° 0 mm 3 mps 758 mmHg 65%
    04:00 +21°C° 0 mm 3 mps 758 mmHg 67%
    05:00 +22°C° 0 mm 3 mps 758 mmHg 64%
    06:00 +25°C° 0 mm 3 mps 758 mmHg 60%
    07:00 +27°C° 0 mm 4 mps 758 mmHg 56%
    08:00 +28°C° 0 mm 4 mps 759 mmHg 51%
    09:00 +30°C° 0 mm 4 mps 759 mmHg 45%
    10:00 +32°C° 0 mm 4 mps 759 mmHg 40%
    11:00 +33°C° 0 mm 5 mps 759 mmHg 38%
    12:00 +33°C° 0 mm 5 mps 759 mmHg 36%
    13:00 +34°C° 0 mm 5 mps 759 mmHg 35%
    14:00 +33°C° 0 mm 5 mps 759 mmHg 35%
    15:00 +33°C° 0 mm 5 mps 759 mmHg 35%
    16:00 +33°C° 0 mm 5 mps 760 mmHg 35%
    17:00 +30°C° 0 mm 4 mps 760 mmHg 40%
    18:00 +28°C° 0 mm 3 mps 760 mmHg 44%
    19:00 +27°C° 0 mm 2 mps 760 mmHg 49%
    20:00 +26°C° 0 mm 2 mps 760 mmHg 49%
    21:00 +25°C° 0 mm 2 mps 761 mmHg 50%
    22:00 +25°C° 0 mm 2 mps 761 mmHg 50%
    23:00 +24°C° 0 mm 2 mps 761 mmHg 49%

    Tomorrow, 29 July, Saturday

    Time Temperature Precipitation Wind Pressure Humidity
    00:00 +24°C° 0 mm 2 mps 761 mmHg 49%
    01:00 +24°C° 0 mm 2 mps 761 mmHg 48%
    02:00 +24°C° 0 mm 2 mps 761 mmHg 48%
    03:00 +24°C° 0 mm 2 mps 761 mmHg 48%
    04:00 +24°C° 0 mm 2 mps 762 mmHg 48%
    05:00 +25°C° 0 mm 2 mps 762 mmHg 46%
    06:00 +27°C° 0 mm 2 mps 762 mmHg 44%
    07:00 +29°C° 0 mm 2 mps 762 mmHg 42%
    08:00 +30°C° 0 mm 2 mps 762 mmHg 39%
    09:00 +32°C° 0 mm 2 mps 762 mmHg 36%
    10:00 +35°C° 0 mm 2 mps 763 mmHg 33%
    11:00 +36°C° 0 mm 3 mps 762 mmHg 32%
    12:00 +36°C° 0 mm 3 mps 762 mmHg 31%
    13:00 +37°C° 0 mm 4 mps 762 mmHg 30%
    14:00 +37°C° 0 mm 4 mps 762 mmHg 32%
    15:00 +36°C° 0 mm 4 mps 762 mmHg 33%
    16:00 +36°C° 0 mm 3 mps 762 mmHg 35%
    17:00 +34°C° 0 mm 3 mps 762 mmHg 40%
    18:00 +31°C° 0 mm 3 mps 762 mmHg 45%
    19:00 +29°C° 0 mm 2 mps 762 mmHg 50%
    20:00 +29°C° 0 mm 2 mps 762 mmHg 51%
    21:00 +28°C° 0 mm 2 mps 762 mmHg 52%
    22:00 +27°C° 0 mm 2 mps 763 mmHg 53%
    23:00 +27°C° 0 mm 2 mps 763 mmHg 53%

    Day after tomorrow, 30 July, Sunday

    Time Temperature Precipitation Wind Pressure Humidity
    00:00 +27°C° 0 mm 2 mps 762 mmHg 53%
    01:00 +27°C° 0 mm 1 mps 762 mmHg 53%
    02:00 +27°C° 0 mm 2 mps 762 mmHg 54%
    03:00 +26°C° 0 mm 2 mps 762 mmHg 55%
    04:00 +26°C° 0 mm 2 mps 762 mmHg 55%
    05:00 +28°C° 0 mm 2 mps 762 mmHg 52%
    06:00 +29°C° 0 mm 2 mps 762 mmHg 49%
    07:00 +31°C° 0 mm 2 mps 762 mmHg 46%
    08:00 +34°C° 0 mm 2 mps 762 mmHg 42%
    09:00 +36°C° 0 mm 2 mps 762 mmHg 38%
    10:00 +37°C° 0 mm 2 mps 762 mmHg 34%
    11:00 +38°C° 0 mm 2 mps 762 mmHg 33%
    12:00 +38°C° 0 mm 3 mps 761 mmHg 32%
    13:00 +39°C° 0 mm 3 mps 761 mmHg 31%
    14:00 +38°C° 0 mm 3 mps 761 mmHg 32%
    15:00 +38°C° 0 mm 3 mps 761 mmHg 34%
    16:00 +37°C° 0 mm 3 mps 760 mmHg 35%
    17:00 +35°C° 0 mm 3 mps 760 mmHg 39%
    18:00 +34°C° 0 mm 2 mps 761 mmHg 43%
    19:00 +31°C° 0 mm 2 mps 761 mmHg 47%
    20:00 +30°C° 0 mm 2 mps 761 mmHg 48%
    21:00 +29°C° 0 mm 2 mps 761 mmHg 49%
    22:00 +29°C° 0 mm 2 mps 761 mmHg 50%
    23:00 +29°C° 0 mm 2 mps 761 mmHg 50%

    31 July, Monday

    Time Temperature Precipitation Wind Pressure Humidity
    00:00 +28°C° 0 mm 2 mps 761 mmHg 51%
    01:00 +28°C° 0 mm 2 mps 761 mmHg 51%
    02:00 +28°C° 0 mm 2 mps 761 mmHg 52%
    03:00 +28°C° 0 mm 2 mps 761 mmHg 53%
    04:00 +27°C° 0 mm 3 mps 761 mmHg 54%
    05:00 +29°C° 0 mm 3 mps 761 mmHg 51%
    06:00 +30°C° 0 mm 2 mps 761 mmHg 48%
    07:00 +32°C° 0 mm 2 mps 761 mmHg 46%
    08:00 +35°C° 0 mm 3 mps 761 mmHg 42%
    09:00 +36°C° 0 mm 3 mps 761 mmHg 38%
    10:00 +38°C° 0 mm 3 mps 761 mmHg 34%
    11:00 +40°C° 0 mm 4 mps 761 mmHg 33%
    12:00 +40°C° 0 mm 4 mps 761 mmHg 32%
    13:00 +41°C° 0 mm 5 mps 760 mmHg 30%
    14:00 +40°C° 0 mm 5 mps 760 mmHg 33%
    15:00 +39°C° 0 mm 5 mps 760 mmHg 36%
    16:00 +37°C° 0 mm 5 mps 760 mmHg 39%
    17:00 +35°C° 0 mm 5 mps 760 mmHg 43%
    18:00 +34°C° 0 mm 5 mps 760 mmHg 47%
    19:00 +32°C° 0 mm 4 mps 760 mmHg 51%
    20:00 +32°C° 0 mm 4 mps 760 mmHg 52%
    21:00 +30°C° 0 mm 4 mps 761 mmHg 53%
    22:00 +30°C° 0 mm 3 mps 761 mmHg 53%
    23:00 +29°C° 0 mm 3 mps 761 mmHg 53%

    1 August, Tuesday

    Time Temperature Precipitation Wind Pressure Humidity
    00:00 +29°C° 0 mm 3 mps 761 mmHg 53%
    01:00 +29°C° 0 mm 3 mps 761 mmHg 53%
    02:00 +28°C° 0 mm 3 mps 761 mmHg 53%
    03:00 +28°C° 0 mm 2 mps 761 mmHg 53%
    04:00 +28°C° 0 mm 2 mps 761 mmHg 53%
    05:00 +29°C° 0 mm 2 mps 761 mmHg 50%
    06:00 +31°C° 0 mm 2 mps 761 mmHg 47%
    07:00 +32°C° 0 mm 2 mps 762 mmHg 44%
    08:00 +35°C° 0 mm 2 mps 762 mmHg 40%
    09:00 +37°C° 0 mm 2 mps 762 mmHg 35%
    10:00 +39°C° 0 mm 2 mps 762 mmHg 31%
    11:00 +39°C° 0 mm 2 mps 761 mmHg 30%
    12:00 +39°C° 0 mm 3 mps 761 mmHg 29%
    13:00 +40°C° 0 mm 3 mps 761 mmHg 28%
    14:00 +39°C° 0 mm 3 mps 761 mmHg 29%
    15:00 +39°C° 0 mm 3 mps 760 mmHg 31%
    16:00 +39°C° 0 mm 3 mps 760 mmHg 32%
    17:00 +37°C° 0 mm 3 mps 761 mmHg 38%
    18:00 +35°C° 0 mm 3 mps 761 mmHg 43%
    19:00 +31°C° 0 mm 3 mps 761 mmHg 49%
    20:00 +31°C° 0 mm 2 mps 761 mmHg 49%
    21:00 +30°C° 0 mm 2 mps 762 mmHg 50%
    22:00 +29°C° 0 mm 1 mps 762 mmHg 50%
    23:00 +29°C° 0 mm 1 mps 762 mmHg 50%

    2 August, Wednesday

    Time Temperature Precipitation Wind Pressure Humidity
    00:00 +29°C° 0 mm 1 mps 762 mmHg 49%
    01:00 +28°C° 0 mm 1 mps 762 mmHg 49%
    02:00 +28°C° 0 mm 2 mps 762 mmHg 48%
    03:00 +28°C° 0 mm 2 mps 761 mmHg 47%
    04:00 +27°C° 0 mm 2 mps 761 mmHg 46%
    05:00 +29°C° 0 mm 2 mps 761 mmHg 43%
    06:00 +30°C° 0 mm 2 mps 761 mmHg 40%
    07:00 +32°C° 0 mm 2 mps 761 mmHg 37%
    08:00 +34°C° 0 mm 2 mps 761 mmHg 34%
    09:00 +36°C° 0 mm 2 mps 761 mmHg 31%
    10:00 +38°C° 0 mm 2 mps 761 mmHg 28%
    11:00 +39°C° 0 mm 2 mps 761 mmHg 27%
    12:00 +39°C° 0 mm 3 mps 761 mmHg 26%
    13:00 +41°C° 0 mm 4 mps 760 mmHg 25%
    14:00 +41°C° 0 mm 4 mps 760 mmHg 26%
    15:00 +41°C° 0 mm 4 mps 760 mmHg 27%
    16:00 +40°C° 0 mm 4 mps 759 mmHg 28%
    17:00 +37°C° 0 mm 4 mps 760 mmHg 34%
    18:00 +35°C° 0 mm 4 mps 760 mmHg 39%
    19:00 +32°C° 0 mm 4 mps 760 mmHg 44%
    20:00 +31°C° 0 mm 3 mps 760 mmHg 44%
    21:00 +30°C° 0 mm 3 mps 760 mmHg 44%
    22:00 +29°C° 0 mm 2 mps 761 mmHg 44%
    23:00 +29°C° 0 mm 2 mps 760 mmHg 43%
    Show more